[TLELIST] Archives

 

Current TLEs <29 APRIL 2005>

April 29th 2005 PST

HST 1 20580U 90037B 05119.54448179 .00000640 00000-0 37591-4 0 3265 2 20580 28.4673 225.7219 0003770 119.3135 240.7828 14.99686730622931 ISS 1 25544U 98067A 05119.99718772 .00007117 00000-0 58719-4 0 3596 2 25544 51.6444 147.6458 0007924 64.9790 13.9690 15.71609714368105 CHANDRA 1 25867U 99040B 05117.62500000 .00000000 00000-0 00000+0 0 7826 2 25867 56.5608 104.4672 5674313 300.0387 1.0563 0.37795118 1214 These 2-Line Elements (TLEs) ...Continue Reading

Current TLEs <27 APRIL 2005>

April 27th 2005 PST

HST 1 20580U 90037B 05116.54973792 .00000663 00000-0 39428-4 0 3240 2 20580 28.4676 245.2312 0003788 87.1705 272.9317 14.99684050622482 ISS 1 25544U 98067A 05117.33147571 .00007373 00000-0 60767-4 0 3382 2 25544 51.6435 161.2869 0007761 56.5085 50.4395 15.71568917367685 CHANDRA 1 25867U 99040B 05114.95833333 .00000000 00000-0 00000+0 0 7816 2 25867 56.5021 104.5334 5678802 300.0749 357.9663 0.37806005 1210 These 2-Line Elements (TLEs) ...Continue Reading

Current TLEs <24 APRIL 2005>

April 24th 2005 PST

HST 1 20580U 90037B 05113.75463598 .00000726 00000-0 44401-4 0 3223 2 20580 28.4673 263.4408 0003608 56.0055 304.0876 14.99681580622067 ISS 1 25544U 98067A 05114.40649191 .00015223 00000-0 12089-3 0 3175 2 25544 51.6453 176.2471 0007804 46.6515 60.9917 15.71461359367224 CHANDRA 1 25867U 99040B 05112.33333333 .00000000 00000-0 00000+0 0 7800 2 25867 56.4572 104.6354 5678404 300.0640 0.5648 0.37804300 1211 These 2-Line Elements (TLEs) ...Continue Reading

Current TLEs <21 APRIL 2005>

April 21st 2005 PST

HST 1 20580U 90037B 05110.89297735 .00000740 00000-0 45495-4 0 3201 2 20580 28.4673 282.0844 0003441 24.4920 335.5836 14.99678399621634 ISS 1 25544U 98067A 05111.96774306 .00016914 00000-0 13419-3 0 3008 2 25544 51.6454 188.7219 0007564 37.4934 304.5743 15.71387963366837 CHANDRA 1 25867U 99040B 05109.66666667 .00000000 00000-0 00000+0 0 7799 2 25867 56.4448 104.7141 5674765 300.0895 357.4978 0.37795414 1211 These 2-Line Elements (TLEs) ...Continue Reading

Current TLEs <19 APRIL 2005>

April 19th 2005 PST

HST 1 20580U 90037B 05108.63026646 .00000910 00000-0 58982-4 0 3182 2 20580 28.4677 296.8250 0003507 358.4615 1.6013 14.99676293621297 ISS 1 25544U 98067A 05109.37128711 .00021305 00000-0 16830-3 0 2743 2 25544 51.6460 201.9979 0007157 30.2892 14.2009 15.71307586366436 CHANDRA 1 25867U 99040B 05107.04166667 .00000000 00000-0 00000+0 0 7783 2 25867 56.4426 104.7514 5673294 300.1640 0.0988 0.37791117 1214 These 2-Line Elements (TLEs) ...Continue Reading

Current TLEs <15 APRIL 2005>

April 15th 2005 PST

HST 1 20580U 90037B 05104.96998958 .00000863 00000-0 55267-4 0 3166 2 20580 28.4686 320.6749 0003662 318.3694 41.6618 14.99670123620740 ISS 1 25544U 98067A 05105.30910924 .00024029 00000-0 19059-3 0 2468 2 25544 51.6451 222.7692 0006589 15.1421 76.6394 15.71130214365796 CHANDRA 1 25867U 99040B 05104.41666667 .00000000 00000-0 00000+0 0 7775 2 25867 56.4237 104.7802 5676660 300.2338 2.7161 0.37795727 1212 These 2-Line Elements (TLEs) ...Continue Reading

Current TLEs <12 APRIL 2005>

April 12th 2005 PST

HST 1 20580U 90037B 05102.84036763 .00000821 00000-0 51902-4 0 3142 2 20580 28.4686 334.5468 0003704 295.6327 64.3877 14.99666844620428 ISS 1 25544U 98067A 05102.95757065 .00017773 00000-0 14308-3 0 2304 2 25544 51.6462 234.7911 0006609 6.9860 95.8567 15.70999634365426 CHANDRA 1 25867U 99040B 05101.75000000 .00000000 00000-0 00000+0 0 7761 2 25867 56.3820 104.8433 5682238 300.2396 359.7118 0.37805181 1215 These 2-Line Elements (TLEs) ...Continue Reading

Current TLEs <08 APRIL 2005>

April 9th 2005 PST

** Sorry for late posting as I have been down with a bad chest infection ** HST 1 20580U 90037B 05098.18180769 .00001181 00000-0 80468-4 0 3115 2 20580 28.4690 4.8911 0003769 244.8375 115.1835 14.99661948619723 ISS 1 25544U 98067A 05099.32681238 .00026546 00000-0 21211-3 0 2037 2 25544 51.6446 253.3469 0006218 351.5454 84.3045 15.70892996364850 CHANDRA 1 25867U 99040B 05099.08333333 .00000000 00000-0 00000+0 0 7750 2 25867 56.3314 104.9 ...Continue Reading

Current TLEs <30 MARCH 2005>

March 30th 2005 PST

HST 1 20580U 90037B 05088.19913222 .00000724 00000-0 44248-4 0 3043 2 20580 28.4675 69.9384 0003934 147.7751 212.3076 14.99649190618221 ISS 1 25544U 98067A 05089.38722222 .00016852 00000-0 13912-3 0 1285 2 25544 51.6460 304.1296 0005571 310.6679 45.7722 15.70445801363283 CHANDRA 1 25867U 99040B 05088.50000000 .00000000 00000-0 00000+0 0 7713 2 25867 56.2431 105.1880 5669351 300.3684 355.8652 0.37803274 1215 These 2-Line Elements (TLEs) ...Continue Reading

Current TLEs <25 MARCH 2005>

March 25th 2005 PST

HST 1 20580U 90037B 05083.47397082 .00000874 00000-0 56166-4 0 3014 2 20580 28.4673 100.7220 0003657 98.4082 261.6922 14.99644257617510 ISS 1 25544U 98067A 05085.02192321 .00030403 00000-0 24820-3 0 965 2 25544 51.6471 326.4255 0005700 292.9167 208.4544 15.70300524362602 CHANDRA 1 25867U 99040B 05084.00000000 .00000000 00000-0 00000+0 0 7691 2 25867 56.1808 105.3428 5663220 300.3903 103.1222 0.37803505 1219 These 2-Line Elements (TLEs) ...Continue Reading
  • This mailing list is a public mailing list - anyone may join or leave, at any time.
  • This mailing list is announce-only.

International Space Station (ISS) / Hubble Space Telescope (HST) / Chandra X-Ray Observatory Orbital Data via EMAIL

Privacy Policy:

Private list